{"data":{"norad_id":62198,"intl_designator":"2024-229G","name":"STARLINK-32640","alt_names":[],"object_type":"PAYLOAD","status":"ACTIVE","operator":null,"country":"US","launch_date":"2024-12-04","launch_site_code":"AFETR","launch_vehicle":null,"mission":null,"orbit_class":"UNKNOWN","rcs_meters":null,"size_class":null,"mass_kg":null,"dimensions":null,"purposes":["comms"],"wikipedia_slug":null,"has_3d_model":false,"image_url":null,"decayed_at":null,"tle_current":{"epoch":"2026-05-25T04:36:33.587424Z","epoch_age_seconds":52393,"freshness":"FRESH","line1":"1 62198U 24229G   26145.19205541  .00011652  00000+0  43217-3 0  9994","line2":"2 62198  42.9970 198.4805 0001119 279.7165  80.3560 15.27586148 82260","mean_motion":15.27586148,"eccentricity":0.0001119,"inclination_deg":42.997,"raan_deg":198.4805,"arg_perigee_deg":279.7165,"mean_anomaly_deg":80.356,"bstar":0.00043217,"rev_number":8226,"period_min":94.266369322956,"perigee_km":482.26292211351,"apogee_km":483.79845144181,"semimajor_km":6861.1676867777,"source":"CELESTRAK","updated_at":"2026-05-25T13:38:19.606999Z"}}}